[[{"header":{"parameterUnit":"m.s-1","parameterCategory":1,"la1":30.2991,"la2":30.254,"lo1":-89.0895,"lo2":-89.0444,"dy":0.0017,"dx":0.0017,"nx":28,"ny":28,"refTime":"2024-02-09T03:00:00:Z","depth":0,"parameterNumber":2,"parameterNumberName":"U-component_of_WINDS"},"data":[0,0,0,0,0,0,0,0,0,0,0,0,0,0,0,0,0,0,0,0,0,0,0,0,0,0,0,0,0,0,0,0,0,0,0,0,0,0,0,0,0,0,0,0,0,0,0,0,0,0,0,0,0,0,0,0,0,0,-2.1733,-2.1733,0,-2.1747,-2.1747,-2.1747,-2.1744,-2.1744,-2.1744,-2.1743,-2.1757,-2.1757,-2.1758,0,0,0,0,0,0,0,0,0,0,0,0,0,-2.17,-2.1701,-2.1733,-2.1733,-2.1733,-2.1747,-2.1747,-2.1748,-2.1744,-2.1744,-2.1744,-2.1743,-2.1757,-2.1757,-2.1758,0,0,0,0,0,0,0,0,0,0,0,0,0,-2.1715,-2.1701,-2.1733,-2.1733,-2.1733,-2.1747,-2.1747,-2.1748,-2.1744,-2.1744,-2.1743,-2.1743,-2.1756,-2.1757,-2.1758,-2.1772,0,0,-2.1761,-2.1761,0,0,0,0,0,0,0,0,-2.1714,-2.1716,-2.1733,-2.1733,-2.1733,-2.1744,-2.1741,-2.1756,-2.1744,-2.174,-2.1743,-2.1743,-2.1753,-2.1754,-2.1757,-2.1772,-2.1773,-2.1761,-2.1762,-2.1762,-2.1762,0,0,0,0,0,0,0,-2.1713,-2.1715,-2.1738,-2.1733,-2.1734,-2.1732,-2.1734,-2.1744,-2.1748,-2.174,-2.174,-2.1742,-2.1753,-2.1756,-2.1758,-2.1773,-2.1761,-2.1762,-2.1762,-2.1763,-2.1799,-2.1799,0,0,0,0,0,0,-2.1712,-2.1714,-2.1738,-2.1739,-2.1722,-2.1733,-2.1735,-2.1741,-2.1748,-2.1749,-2.1742,-2.1742,-2.1755,-2.1757,-2.1758,-2.1773,-2.1762,-2.1763,-2.1763,-2.1798,-2.1799,-2.1799,0,0,0,0,0,0,-2.1711,-2.1714,-2.1737,-2.1727,-2.1729,-2.1734,-2.1741,-2.1741,-2.1745,-2.175,-2.175,-2.1746,-2.1755,-2.1757,-2.1768,-2.1774,-2.1763,-2.1764,-2.1798,-2.1798,-2.1799,-2.1805,0,0,0,0,0,0,-2.171,-2.1714,-2.172,-2.1727,-2.173,-2.1748,-2.1741,-2.1742,-2.1747,-2.1746,-2.1753,-2.1754,-2.1755,-2.1767,-2.1769,-2.1775,-2.1765,-2.1797,-2.1798,-2.1799,-2.1804,-2.1806,-2.1807,0,0,0,0,0,-2.1709,-2.1721,-2.172,-2.1723,-2.1738,-2.1748,-2.175,-2.1751,-2.1747,-2.1753,-2.1755,-2.1753,-2.1773,-2.1768,-2.1771,-2.1777,-2.1797,-2.1798,-2.1799,-2.1804,-2.1806,-2.1807,0,0,0,0,0,0,-2.1714,-2.1722,-2.1721,-2.1735,-2.1741,-2.1748,-2.1755,-2.1754,-2.176,-2.1759,-2.176,-2.1762,-2.1773,-2.1776,-2.1771,-2.179,-2.1784,-2.1786,-2.1787,-2.1789,-2.179,-2.1789,-2.1765,0,0,0,0,0,-2.1717,-2.1726,-2.1732,-2.1744,-2.1747,-2.175,-2.1755,-2.1756,-2.1761,-2.1764,-2.1767,-2.1773,-2.178,-2.1785,-2.1792,-2.1805,-2.1806,-2.181,-2.1812,-2.1813,-2.1814,-2.182,-2.1821,-2.1802,-2.1802,-2.1802,0,0,-2.1723,-2.1728,-2.1734,-2.1745,-2.175,-2.1758,-2.1752,-2.1762,-2.1767,-2.1765,-2.1776,-2.1779,-2.1785,-2.1796,-2.1802,-2.1799,-2.1819,-2.1814,-2.1815,-2.1815,-2.1821,-2.1823,-2.1824,-2.1803,-2.1803,-2.1803,0,0,-2.1738,-2.1743,-2.1753,-2.1758,-2.1764,-2.1766,-2.1769,-2.1775,-2.1777,-2.1788,-2.1786,-2.1793,-2.1806,-2.1809,-2.1813,-2.1828,-2.1826,-2.183,-2.1837,-2.1843,-2.1844,-2.1845,-2.185,-2.1851,-2.1831,-2.1831,-2.1831,0,-2.1744,-2.1757,-2.1758,-2.1767,-2.1772,-2.177,-2.178,-2.1784,-2.1793,-2.1795,-2.1792,-2.1808,-2.1812,-2.1824,-2.1827,-2.1831,-2.1833,-2.1829,-2.1844,-2.1845,-2.1846,-2.185,-2.1852,-2.1832,-2.1832,-2.1832,-2.1832,0,-2.1763,-2.1772,-2.1779,-2.1787,-2.1793,-2.1802,-2.1804,-2.1809,-2.1809,-2.1811,-2.1821,-2.1826,-2.1834,-2.1837,-2.1837,-2.1848,-2.1846,-2.1844,-2.1838,-2.1849,-2.1852,-2.1854,-2.1832,-2.1832,-2.1832,-2.1832,0,0,-2.1782,-2.179,-2.1793,-2.1796,-2.1803,-2.1809,-2.1818,-2.1825,-2.1829,-2.1835,-2.1841,-2.1852,-2.1849,-2.1853,-2.1854,-2.1859,-2.1869,-2.1855,-2.1855,-2.1857,-2.1881,-2.1882,-2.1884,-2.1868,-2.1868,-2.1868,-2.188,0,-2.1796,-2.1811,-2.1813,-2.1826,-2.1834,-2.1832,-2.1839,-2.1844,-2.1846,-2.1852,-2.1854,-2.1861,-2.1857,-2.1859,-2.1864,-2.1866,-2.1873,-2.1866,-2.1873,-2.1873,-2.187,-2.1886,-2.1888,-2.1898,-2.1881,-2.1882,-2.1882,0,-2.1815,-2.1821,-2.1835,-2.184,-2.1843,-2.185,-2.1856,-2.1862,-2.1867,-2.1868,-2.1872,-2.1872,-2.1879,-2.1874,-2.1884,-2.1879,-2.1882,-2.1883,-2.1884,-2.1884,-2.1877,-2.1885,-2.1902,-2.1903,-2.1884,-2.1884,-2.1884,0,-2.1825,-2.1837,-2.1847,-2.185,-2.1856,-2.1861,-2.1863,-2.1868,-2.1872,-2.1877,-2.1879,-2.1886,-2.1889,-2.1893,-2.1894,-2.189,-2.1904,-2.1899,-2.1904,-2.1904,-2.1906,-2.1906,-2.1922,-2.191,-2.1909,-2.1909,-2.1909,0,-2.184,-2.1849,-2.1851,-2.1857,-2.1866,-2.1868,-2.1876,-2.1879,-2.1883,-2.1888,-2.1887,-2.1893,-2.1894,-2.1899,-2.1899,-2.1907,-2.1909,-2.1909,-2.1909,-2.1909,-2.1909,-2.191,-2.1909,-2.191,-2.191,-2.191,-2.191,0,-2.1853,-2.1855,-2.1866,-2.1871,-2.1872,-2.1879,-2.1882,-2.1888,-2.1889,-2.1897,-2.1898,-2.1901,-2.1907,-2.1908,-2.1915,-2.1916,-2.1924,-2.1924,-2.1923,-2.1922,-2.1927,-2.1926,-2.1945,-2.1947,-2.1933,-2.1933,-2.1934,0,-2.1862,-2.1869,-2.1874,-2.1878,-2.1881,-2.1888,-2.1891,-2.1892,-2.1896,-2.1902,-2.1906,-2.1912,-2.1917,-2.1927,-2.1929,-2.1934,-2.1933,-2.1939,-2.1934,-2.1933,-2.1932,-2.1931,-2.1931,-2.194,-2.194,-2.194,-2.194,0,-2.1878,-2.1879,-2.1884,-2.189,-2.1895,-2.19,-2.1904,-2.1907,-2.1909,-2.1913,-2.1919,-2.1923,-2.193,-2.1936,-2.1941,-2.1943,-2.1941,-2.1942,-2.1943,-2.1942,-2.1941,-2.1941,-2.1925,-2.1941,-2.1941,-2.1941,-2.1941,-2.1941,-2.1889,-2.1894,-2.1898,-2.1904,-2.1908,-2.1912,-2.1917,-2.1919,-2.1924,-2.193,-2.193,-2.1937,-2.194,-2.1947,-2.195,-2.1954,-2.1952,-2.1954,-2.1955,-2.1955,-2.1955,-2.1941,-2.1955,-2.1955,-2.1955,-2.1955,-2.1955,0,-2.1903,-2.1906,-2.1911,-2.1918,-2.1922,-2.1921,-2.1925,-2.1929,-2.1935,-2.1939,-2.1943,-2.195,-2.1955,-2.1957,-2.1962,-2.1966,-2.1965,-2.1967,-2.1966,-2.1966,-2.1957,-2.1955,-2.1967,-2.1967,-2.1967,-2.1967,-2.1967,-2.1967,-2.1911,-2.1919,-2.192,-2.193,-2.1933,-2.1939,-2.1942,-2.1945,-2.1948,-2.1955,-2.196,-2.1961,-2.1964,-2.1969,-2.1974,-2.1974,-2.1975,-2.1977,-2.1978,-2.1968,-2.1967,-2.1966,-2.1964,-2.1978,-2.1978,-2.1986,-2.1987,-2.1987]},{"header":{"parameterUnit":"m.s-1","parameterCategory":1,"la1":30.2991,"la2":30.254,"lo1":-89.0895,"lo2":-89.0444,"dy":0.0017,"dx":0.0017,"nx":28,"ny":28,"refTime":"2024-02-09T03:00:00:Z","depth":0,"parameterNumber":3,"parameterNumberName":"V-component_of_WINDS"},"data":[0,0,0,0,0,0,0,0,0,0,0,0,0,0,0,0,0,0,0,0,0,0,0,0,0,0,0,0,0,0,0,0,0,0,0,0,0,0,0,0,0,0,0,0,0,0,0,0,0,0,0,0,0,0,0,0,0,0,1.9815,1.9816,0,1.9967,1.9969,1.997,2.0029,2.0028,2.0028,2.0027,2.0185,2.0189,2.0194,0,0,0,0,0,0,0,0,0,0,0,0,0,1.9576,1.958,1.9814,1.9816,1.9818,1.9967,1.9969,1.9971,2.0029,2.0028,2.0028,2.0027,2.0183,2.0189,2.0194,0,0,0,0,0,0,0,0,0,0,0,0,0,1.9699,1.9582,1.9814,1.9865,1.9871,1.9966,1.9969,1.9971,2.0029,2.0028,2.0028,2.0027,2.0182,2.0188,2.0195,2.0251,0,0,2.0216,2.0219,0,0,0,0,0,0,0,0,1.9692,1.9708,1.9856,1.9862,1.9869,1.9978,1.9943,2.0065,2.0029,1.9969,2.0027,2.0027,2.0117,2.0129,2.0159,2.0258,2.0265,2.0217,2.0221,2.0224,2.0226,0,0,0,0,0,0,0,1.9684,1.9702,1.9875,1.9858,1.9866,1.9881,1.9898,1.9966,2.0045,1.9974,1.9979,1.9996,2.012,2.0152,2.0163,2.0268,2.0217,2.0223,2.0227,2.023,2.0423,2.0424,0,0,0,0,0,0,1.9666,1.9694,1.987,1.9879,1.9777,1.9886,1.9905,1.9944,2.0044,2.0059,1.9996,1.9998,2.0141,2.0155,2.0169,2.0243,2.0224,2.023,2.0234,2.0422,2.0423,2.0424,0,0,0,0,0,0,1.9661,1.9681,1.9864,1.9788,1.9813,1.9891,1.9934,1.9947,1.9979,2.0061,2.0075,2.0014,2.0141,2.0159,2.0231,2.0249,2.0234,2.024,2.0421,2.0423,2.0424,2.039,0,0,0,0,0,0,1.9654,1.9679,1.9701,1.9788,1.9816,1.9922,1.9935,1.995,1.9991,1.9994,2.0082,2.0096,2.0142,2.022,2.0238,2.0258,2.0245,2.042,2.0422,2.0423,2.039,2.039,2.039,0,0,0,0,0,1.9645,1.9685,1.9701,1.9722,1.9845,1.9923,1.9939,1.9991,1.9992,2.0015,2.0068,2.0093,2.0244,2.0227,2.0247,2.027,2.0419,2.0421,2.0423,2.039,2.039,2.039,0,0,0,0,0,0,1.9597,1.9697,1.9717,1.9785,1.9845,1.9933,1.9963,1.9989,2.005,2.0051,2.0113,2.0133,2.02,2.0242,2.0221,2.0331,2.0333,2.034,2.0301,2.0302,2.0302,2.0291,2.0251,0,0,0,0,0,1.9595,1.9649,1.9734,1.9787,1.9816,1.9884,1.992,1.9955,2.0019,2.0045,2.0103,2.0165,2.0228,2.0267,2.0328,2.0396,2.0417,2.0422,2.0422,2.0422,2.0427,2.0468,2.0472,2.0432,2.0432,2.0432,0,0,1.959,1.9651,1.9682,1.9779,1.9829,1.9885,1.9905,1.9963,2.0006,2.0054,2.0126,2.017,2.0244,2.0315,2.0349,2.0352,2.0443,2.0425,2.0424,2.043,2.0471,2.0475,2.0478,2.0433,2.0433,2.0433,0,0,1.9611,1.9662,1.9712,1.9763,1.9839,1.9884,1.9896,1.998,2.0012,2.0084,2.0122,2.0174,2.0279,2.0331,2.0371,2.0412,2.0439,2.043,2.0432,2.0472,2.0475,2.0478,2.0495,2.05,2.0435,2.0435,2.0435,0,1.9596,1.9681,1.9735,1.9792,1.9834,1.988,1.9932,1.9979,2.0071,2.01,2.0102,2.0235,2.0288,2.0372,2.0383,2.0413,2.043,2.0421,2.047,2.0474,2.0477,2.0494,2.05,2.0433,2.0434,2.0434,2.0434,0,1.966,1.9719,1.975,1.9839,1.9884,1.9938,2.0001,2.0041,2.0072,2.0118,2.0192,2.0257,2.0333,2.0356,2.0386,2.0445,2.0445,2.0458,2.0462,2.0479,2.0496,2.0502,2.0432,2.0432,2.0432,2.0433,0,0,1.9655,1.9772,1.9783,1.9825,1.9913,1.996,2.0017,2.0091,2.0125,2.0187,2.0238,2.0326,2.0339,2.0384,2.0421,2.0455,2.0487,2.0465,2.0467,2.0468,2.0558,2.0548,2.0555,2.0504,2.0506,2.0507,2.0552,0,1.9688,1.9792,1.9842,1.9924,1.998,2.0025,2.0075,2.0135,2.018,2.0235,2.0284,2.0346,2.0357,2.0385,2.0421,2.0475,2.0506,2.0472,2.0554,2.0556,2.0535,2.0563,2.0554,2.0593,2.0559,2.056,2.0561,0,1.9741,1.9803,1.9891,1.9974,1.9999,2.0043,2.0116,2.0168,2.0237,2.0267,2.0318,2.0355,2.0418,2.0416,2.0506,2.0482,2.0518,2.055,2.0552,2.0563,2.056,2.0576,2.0607,2.0613,2.0571,2.057,2.057,0,1.9731,1.9836,1.9903,1.9937,2.0035,2.0065,2.0107,2.0176,2.0218,2.0282,2.031,2.0381,2.042,2.0474,2.0529,2.0523,2.0614,2.0616,2.0642,2.064,2.066,2.0658,2.0698,2.068,2.068,2.068,2.068,0,1.9764,1.9816,1.99,1.9941,2.0001,2.0059,2.0118,2.0164,2.0225,2.0277,2.0319,2.0367,2.0436,2.0493,2.0537,2.0605,2.0622,2.0649,2.066,2.0646,2.0643,2.0672,2.0671,2.0682,2.0681,2.0681,2.0681,0,1.9763,1.9821,1.9897,1.9983,2.0006,2.0047,2.0122,2.0164,2.0211,2.0276,2.0295,2.0368,2.0437,2.0497,2.0589,2.0618,2.0689,2.0702,2.0666,2.0672,2.0695,2.0692,2.0756,2.0768,2.074,2.074,2.074,0,1.9781,1.9822,1.9913,1.9951,1.9992,2.0052,2.0096,2.0155,2.0198,2.0281,2.0314,2.0386,2.0448,2.0557,2.0619,2.069,2.0706,2.0723,2.0717,2.0702,2.0708,2.0706,2.0711,2.0723,2.0723,2.0723,2.0723,0,1.9807,1.9834,1.9894,1.9965,2.0016,2.0074,2.0134,2.0163,2.0233,2.028,2.0352,2.0399,2.0493,2.0565,2.0643,2.0688,2.0718,2.0725,2.0735,2.0722,2.07,2.0714,2.0668,2.0723,2.0723,2.0723,2.0723,2.0723,1.9818,1.9857,1.9928,1.9994,2.0045,2.0101,2.0145,2.0198,2.0258,2.0339,2.037,2.0443,2.0514,2.0622,2.0667,2.0726,2.0731,2.0745,2.0749,2.0751,2.075,2.0689,2.074,2.074,2.074,2.074,2.074,0,1.9848,1.9896,1.9956,2.0039,2.0091,2.0114,2.0182,2.0225,2.0289,2.0352,2.0411,2.0494,2.0565,2.0633,2.0707,2.0742,2.0758,2.0759,2.0758,2.0769,2.0741,2.0725,2.0745,2.0745,2.0745,2.0745,2.0745,2.0745,1.987,1.9938,1.9974,2.0069,2.0117,2.0189,2.0226,2.0278,2.0329,2.0419,2.0478,2.0522,2.0587,2.0667,2.0733,2.0752,2.0778,2.0776,2.0799,2.0771,2.077,2.0769,2.0755,2.0781,2.0781,2.0822,2.0822,2.0823]}]]